Simultaneous Nadir Overpasses (SNOs) Predictions

Prediction of SNOs near equator between NOAA-19 and NPP Satellite Orbit:

Table of predicted SNOs near equator for the next 14.0 days since TLE Epoch: 6/3/2012
Index Date (NOAA-19) Time (NOAA-19) NOAA-19 Lat,Lon Date (NPP) Time (NPP) NPP Lat,Lon Distance(km) Time Diff (sec)
1 06/09/2012 18:39:31 29.99, -81.89 06/09/2012 18:34:53 29.76, -82.85 96.13 278
2 06/09/2012 19:30:29 -30.00, 85.37 06/09/2012 19:25:35 -29.81, 84.46 89.57 294
3 06/09/2012 20:21:36 29.97,-107.41 06/09/2012 20:16:24 29.83,-108.25 82.33 312
4 06/09/2012 21:12:34 -29.98, 59.85 06/09/2012 21:07:05 -29.82, 59.08 75.75 329
5 06/09/2012 22:03:41 29.96,-132.93 06/09/2012 21:57:54 29.84,-133.62 68.51 347
6 06/09/2012 22:54:39 -29.97, 34.33 06/09/2012 22:48:35 -29.83, 33.71 61.94 364
7 06/09/2012 23:45:46 29.95,-158.44 06/09/2012 23:39:24 29.86,-159.00 54.69 382
8 06/10/2012 00:36:44 -29.95, 8.81 06/10/2012 00:30:05 -29.84, 8.33 48.13 399
9 06/10/2012 01:27:52 29.99, 176.02 06/10/2012 01:20:55 29.92, 175.61 40.82 417
10 06/10/2012 02:18:50 -30.00, -16.72 06/10/2012 02:11:36 -29.91, -17.06 34.29 434
11 06/10/2012 03:09:57 29.98, 150.50 06/10/2012 03:02:25 29.93, 150.23 27.00 452
12 06/10/2012 04:00:55 -29.98, -42.24 06/10/2012 03:53:06 -29.92, -42.44 20.54 469
13 06/10/2012 04:52:02 29.97, 124.99 06/10/2012 04:43:55 29.95, 124.85 13.19 487
14 06/10/2012 05:43:00 -29.97, -67.76 06/10/2012 05:34:36 -29.93, -67.82 7.08 504
15 06/10/2012 06:33:42 28.50, 99.87 06/10/2012 06:25:00 28.49, 99.87 0
